Time,TemperatureF,DewpointF,PressureIn,WindDirection,WindDirectionDegrees,WindSpeedMPH,WindSpeedGustMPH,Humidity,HourlyPrecipIn,Conditions,Clouds,dailyrainin,SoftwareType,DateUTC
2013-10-04 00:31:00,58.6,55.8,30.04,WNW,295,2.0,5.0,90,0.00,,,0.00,meteohub,2013-10-04 04:31:00,
2013-10-04 00:33:00,58.6,55.8,30.04,WNW,295,0.0,5.0,90,0.00,,,0.00,meteohub,2013-10-04 04:33:00,
2013-10-04 00:34:00,58.6,55.8,30.04,WNW,295,1.0,5.0,90,0.00,,,0.00,meteohub,2013-10-04 04:34:00,
2013-10-04 00:35:00,58.6,55.8,30.04,WNW,292,4.0,5.0,90,0.00,,,0.00,meteohub,2013-10-04 04:35:00,
2013-10-04 00:36:00,58.6,55.8,30.04,West,263,0.0,5.0,90,0.00,,,0.00,meteohub,2013-10-04 04:36:00,
2013-10-04 00:37:00,58.6,55.8,30.04,West,272,0.0,5.0,90,0.00,,,0.00,meteohub,2013-10-04 04:37:00,
2013-10-04 00:39:00,58.6,55.8,30.04,West,272,0.0,5.0,90,0.00,,,0.00,meteohub,2013-10-04 04:39:00,
2013-10-04 00:42:00,58.6,55.8,30.03,NNW,335,0.0,5.0,90,0.00,,,0.00,meteohub,2013-10-04 04:42:00,
2013-10-04 00:43:00,58.6,55.8,30.03,NNW,335,0.0,5.0,90,0.00,,,0.00,meteohub,2013-10-04 04:43:00,
2013-10-04 00:45:00,58.6,55.8,30.03,NNW,335,1.0,4.0,90,0.00,,,0.00,meteohub,2013-10-04 04:45:00,
2013-10-04 00:46:00,58.6,55.8,30.03,NNW,335,1.0,4.0,90,0.00,,,0.00,meteohub,2013-10-04 04:46:00,
2013-10-04 00:48:00,58.6,55.8,30.03,West,278,0.0,4.0,90,0.00,,,0.00,meteohub,2013-10-04 04:48:00,
2013-10-04 00:50:00,58.6,55.8,30.04,West,278,0.0,4.0,90,0.00,,,0.00,meteohub,2013-10-04 04:50:00,
2013-10-04 00:56:00,58.6,55.8,30.04,West,279,0.0,2.0,90,0.00,,,0.00,meteohub,2013-10-04 04:56:00,
2013-10-04 00:57:00,58.6,55.8,30.04,West,280,0.0,2.0,90,0.00,,,0.00,meteohub,2013-10-04 04:57:00,
2013-10-04 01:02:00,58.6,55.4,30.03,WNW,291,0.0,2.0,89,0.00,,,0.00,meteohub,2013-10-04 05:02:00,
2013-10-04 01:03:00,58.6,55.4,30.03,WNW,291,0.0,2.0,89,0.00,,,0.00,meteohub,2013-10-04 05:03:00,
2013-10-04 01:05:00,58.6,55.4,30.03,WNW,291,0.0,2.0,89,0.00,,,0.00,meteohub,2013-10-04 05:05:00,
2013-10-04 01:08:00,58.6,55.4,30.03,WNW,291,0.0,2.0,89,0.00,,,0.00,meteohub,2013-10-04 05:08:00,
2013-10-04 01:10:00,58.6,55.4,30.03,WNW,293,0.0,2.0,89,0.00,,,0.00,meteohub,2013-10-04 05:10:00,
2013-10-04 01:11:00,58.6,55.4,30.03,WNW,283,0.0,2.0,89,0.00,,,0.00,meteohub,2013-10-04 05:11:00,
2013-10-04 01:13:00,58.6,55.0,30.03,WNW,290,2.0,2.0,88,0.00,,,0.00,meteohub,2013-10-04 05:13:00,
2013-10-04 01:15:00,58.6,55.0,30.04,West,281,7.0,7.0,88,0.00,,,0.00,meteohub,2013-10-04 05:15:00,
2013-10-04 01:16:00,58.6,55.0,30.04,WNW,286,2.0,7.0,88,0.00,,,0.00,meteohub,2013-10-04 05:16:00,
2013-10-04 01:19:00,58.8,54.7,30.03,WNW,287,2.0,7.0,86,0.00,,,0.00,meteohub,2013-10-04 05:19:00,
2013-10-04 01:25:00,59.2,55.0,30.04,West,279,0.0,7.0,86,0.00,,,0.00,meteohub,2013-10-04 05:25:00,
2013-10-04 01:31:00,59.2,55.4,30.03,WNW,298,0.0,7.0,87,0.00,,,0.00,meteohub,2013-10-04 05:31:00,
2013-10-04 01:36:00,58.8,55.2,30.04,WNW,292,0.0,4.0,88,0.00,,,0.00,meteohub,2013-10-04 05:36:00,
2013-10-04 01:41:00,58.6,55.0,30.04,WNW,289,1.0,4.0,88,0.00,,,0.00,meteohub,2013-10-04 05:41:00,
2013-10-04 01:46:00,58.3,55.0,30.04,WNW,289,1.0,4.0,89,0.00,,,0.00,meteohub,2013-10-04 05:46:00,
2013-10-04 01:51:00,58.1,55.2,30.04,WNW,289,0.0,2.0,90,0.00,,,0.00,meteohub,2013-10-04 05:51:00,
2013-10-04 01:56:00,57.7,54.9,30.03,NW,309,1.0,2.0,90,0.00,,,0.00,meteohub,2013-10-04 05:56:00,
2013-10-04 02:01:00,57.6,54.7,30.03,NE,39,1.0,2.0,90,0.00,,,0.00,meteohub,2013-10-04 06:01:00,
2013-10-04 02:06:00,57.6,54.7,30.03,NE,39,0.0,3.0,90,0.00,,,0.00,meteohub,2013-10-04 06:06:00,
2013-10-04 02:11:00,57.2,54.7,30.03,NE,39,0.0,3.0,91,0.00,,,0.00,meteohub,2013-10-04 06:11:00,
2013-10-04 02:16:00,57.0,54.7,30.03,NW,304,0.0,2.0,92,0.00,,,0.00,meteohub,2013-10-04 06:16:00,
2013-10-04 02:21:00,56.8,54.5,30.03,NW,304,0.0,2.0,92,0.00,,,0.00,meteohub,2013-10-04 06:21:00,
2013-10-04 02:26:00,56.8,54.9,30.04,WNW,285,2.0,2.0,93,0.00,,,0.00,meteohub,2013-10-04 06:26:00,
2013-10-04 02:31:00,57.2,55.2,30.03,WNW,291,2.0,5.0,93,0.00,,,0.00,meteohub,2013-10-04 06:31:00,
2013-10-04 02:37:00,57.6,55.2,30.03,WNW,287,2.0,5.0,92,0.00,,,0.00,meteohub,2013-10-04 06:37:00,
2013-10-04 02:42:00,57.7,55.4,30.03,WNW,290,2.0,5.0,92,0.00,,,0.00,meteohub,2013-10-04 06:42:00,
2013-10-04 02:47:00,57.7,55.2,30.03,WNW,286,1.0,5.0,91,0.00,,,0.00,meteohub,2013-10-04 06:47:00,
2013-10-04 02:52:00,57.9,55.2,30.03,WNW,293,1.0,5.0,91,0.00,,,0.00,meteohub,2013-10-04 06:52:00,
2013-10-04 02:57:00,57.9,55.2,30.03,WNW,293,1.0,5.0,91,0.00,,,0.00,meteohub,2013-10-04 06:57:00,
2013-10-04 03:02:00,57.9,55.2,30.02,WNW,289,0.0,4.0,91,0.00,,,0.00,meteohub,2013-10-04 07:02:00,
2013-10-04 03:07:00,57.7,55.2,30.03,WNW,289,1.0,2.0,91,0.00,,,0.00,meteohub,2013-10-04 07:07:00,
2013-10-04 03:12:00,57.7,55.2,30.03,West,280,1.0,2.0,91,0.00,,,0.00,meteohub,2013-10-04 07:12:00,
2013-10-04 03:17:00,57.7,55.2,30.03,West,276,4.0,4.0,91,0.00,,,0.00,meteohub,2013-10-04 07:17:00,
2013-10-04 03:22:00,57.7,55.2,30.03,WNW,292,4.0,4.0,91,0.00,,,0.00,meteohub,2013-10-04 07:22:00,
2013-10-04 03:27:00,57.7,55.2,30.03,West,279,5.0,5.0,91,0.00,,,0.00,meteohub,2013-10-04 07:27:00,
2013-10-04 03:32:00,58.1,55.4,30.03,WNW,289,4.0,6.0,91,0.00,,,0.00,meteohub,2013-10-04 07:32:00,
2013-10-04 03:37:00,58.3,55.4,30.02,WSW,256,1.0,6.0,90,0.00,,,0.00,meteohub,2013-10-04 07:37:00,
2013-10-04 03:42:00,58.5,55.6,30.03,WNW,291,4.0,6.0,90,0.00,,,0.00,meteohub,2013-10-04 07:42:00,
2013-10-04 03:47:00,58.3,55.4,30.03,WNW,285,0.0,6.0,90,0.00,,,0.00,meteohub,2013-10-04 07:47:00,
2013-10-04 03:52:00,58.3,55.4,30.03,WNW,284,0.0,6.0,90,0.00,,,0.00,meteohub,2013-10-04 07:52:00,
2013-10-04 03:57:00,58.1,54.9,30.02,WNW,284,0.0,5.0,89,0.00,,,0.00,meteohub,2013-10-04 07:57:00,
2013-10-04 04:02:00,57.9,55.0,30.02,WNW,294,2.0,4.0,90,0.00,,,0.00,meteohub,2013-10-04 08:02:00,
2013-10-04 04:07:00,57.9,55.2,30.02,WNW,289,4.0,5.0,91,0.00,,,0.00,meteohub,2013-10-04 08:07:00,
2013-10-04 04:12:00,57.9,55.2,30.02,West,277,4.0,5.0,91,0.00,,,0.00,meteohub,2013-10-04 08:12:00,
2013-10-04 04:17:00,57.9,55.2,30.02,WNW,289,4.0,6.0,91,0.00,,,0.00,meteohub,2013-10-04 08:17:00,
2013-10-04 04:22:00,57.9,55.2,30.02,WNW,286,1.0,6.0,91,0.00,,,0.00,meteohub,2013-10-04 08:22:00,
2013-10-04 04:27:00,57.7,54.9,30.02,WNW,283,0.0,6.0,90,0.00,,,0.00,meteohub,2013-10-04 08:27:00,
2013-10-04 04:32:00,57.7,54.9,30.02,WNW,283,0.0,5.0,90,0.00,,,0.00,meteohub,2013-10-04 08:32:00,
2013-10-04 04:37:00,57.6,55.0,30.02,WNW,283,0.0,2.0,91,0.00,,,0.00,meteohub,2013-10-04 08:37:00,
2013-10-04 04:42:00,57.4,54.9,30.02,WNW,283,1.0,2.0,91,0.00,,,0.00,meteohub,2013-10-04 08:42:00,
2013-10-04 04:47:00,57.2,54.9,30.02,WNW,287,2.0,2.0,92,0.00,,,0.00,meteohub,2013-10-04 08:47:00,
2013-10-04 04:52:00,57.2,54.9,30.02,WNW,290,1.0,4.0,92,0.00,,,0.00,meteohub,2013-10-04 08:52:00,
2013-10-04 04:57:00,57.2,54.9,30.02,WNW,290,0.0,4.0,92,0.00,,,0.00,meteohub,2013-10-04 08:57:00,
2013-10-04 05:02:00,57.2,54.9,30.02,WNW,290,1.0,4.0,92,0.00,,,0.00,meteohub,2013-10-04 09:02:00,
2013-10-04 05:07:00,57.4,55.0,30.02,WNW,297,2.0,5.0,92,0.00,,,0.00,meteohub,2013-10-04 09:07:00,
2013-10-04 05:12:00,57.2,54.9,30.03,WNW,289,0.0,5.0,92,0.00,,,0.00,meteohub,2013-10-04 09:12:00,
2013-10-04 05:17:00,57.0,54.7,30.03,WNW,283,0.0,5.0,92,0.00,,,0.00,meteohub,2013-10-04 09:17:00,
2013-10-04 05:22:00,57.0,54.7,30.03,WNW,283,0.0,4.0,92,0.00,,,0.00,meteohub,2013-10-04 09:22:00,
2013-10-04 05:27:00,56.8,54.5,30.03,WNW,283,0.0,2.0,92,0.00,,,0.00,meteohub,2013-10-04 09:27:00,
2013-10-04 05:32:00,56.7,54.7,30.03,WNW,283,0.0,1.0,93,0.00,,,0.00,meteohub,2013-10-04 09:32:00,
2013-10-04 05:37:00,56.7,54.7,30.03,WNW,283,1.0,2.0,93,0.00,,,0.00,meteohub,2013-10-04 09:37:00,
2013-10-04 05:42:00,56.7,54.7,30.03,WNW,283,2.0,2.0,93,0.00,,,0.00,meteohub,2013-10-04 09:42:00,
2013-10-04 05:47:00,56.8,54.9,30.03,WNW,283,1.0,4.0,93,0.00,,,0.00,meteohub,2013-10-04 09:47:00,
2013-10-04 05:52:00,56.8,54.9,30.03,WNW,283,1.0,4.0,93,0.00,,,0.00,meteohub,2013-10-04 09:52:00,
2013-10-04 05:57:00,57.0,55.0,30.03,WNW,282,2.0,4.0,93,0.00,,,0.00,meteohub,2013-10-04 09:57:00,
2013-10-04 06:02:00,57.0,55.0,30.04,WNW,293,1.0,5.0,93,0.00,,,0.00,meteohub,2013-10-04 10:02:00,
2013-10-04 06:07:00,57.4,55.4,30.04,WNW,292,4.0,5.0,93,0.00,,,0.00,meteohub,2013-10-04 10:07:00,
2013-10-04 06:12:00,57.4,55.4,30.04,WNW,286,2.0,5.0,93,0.00,,,0.00,meteohub,2013-10-04 10:12:00,
2013-10-04 06:17:00,57.4,55.4,30.04,WNW,295,2.0,5.0,93,0.00,,,0.00,meteohub,2013-10-04 10:17:00,
2013-10-04 06:22:00,57.4,55.4,30.04,WNW,287,2.0,5.0,93,0.00,,,0.00,meteohub,2013-10-04 10:22:00,
2013-10-04 06:27:00,57.4,55.4,30.04,WNW,294,4.0,5.0,93,0.00,,,0.00,meteohub,2013-10-04 10:27:00,
2013-10-04 06:32:00,57.4,55.4,30.04,WNW,291,2.0,5.0,93,0.00,,,0.00,meteohub,2013-10-04 10:32:00,
2013-10-04 06:37:00,57.4,55.4,30.04,WNW,290,1.0,5.0,93,0.00,,,0.00,meteohub,2013-10-04 10:37:00,
2013-10-04 06:42:00,57.4,55.4,30.04,WNW,290,2.0,4.0,93,0.00,,,0.00,meteohub,2013-10-04 10:42:00,
2013-10-04 06:47:00,57.2,55.4,30.04,WNW,292,2.0,4.0,94,0.00,,,0.00,meteohub,2013-10-04 10:47:00,
2013-10-04 06:52:00,57.2,55.4,30.04,WNW,288,4.0,5.0,94,0.00,,,0.00,meteohub,2013-10-04 10:52:00,
2013-10-04 06:57:00,57.2,55.4,30.04,WNW,289,1.0,5.0,94,0.00,,,0.00,meteohub,2013-10-04 10:57:00,
2013-10-04 07:02:00,57.0,55.0,30.04,WNW,292,1.0,5.0,93,0.00,,,0.00,meteohub,2013-10-04 11:02:00,
2013-10-04 07:07:00,57.0,55.0,30.04,WNW,292,1.0,5.0,93,0.00,,,0.00,meteohub,2013-10-04 11:07:00,
2013-10-04 07:12:00,57.0,55.0,30.04,WNW,292,0.0,4.0,93,0.00,,,0.00,meteohub,2013-10-04 11:12:00,
2013-10-04 07:17:00,56.8,54.9,30.05,WNW,288,0.0,4.0,93,0.00,,,0.00,meteohub,2013-10-04 11:17:00,
2013-10-04 07:22:00,56.8,55.2,30.05,WNW,288,1.0,2.0,94,0.00,,,0.00,meteohub,2013-10-04 11:22:00,
2013-10-04 07:27:00,56.7,55.0,30.05,WNW,288,1.0,2.0,94,0.00,,,0.00,meteohub,2013-10-04 11:27:00,
2013-10-04 07:32:00,56.7,55.0,30.05,WNW,289,0.0,2.0,94,0.00,,,0.00,meteohub,2013-10-04 11:32:00,
2013-10-04 07:37:00,56.5,54.9,30.05,WNW,289,0.0,2.0,94,0.00,,,0.00,meteohub,2013-10-04 11:37:00,
2013-10-04 07:41:00,56.5,54.9,30.05,WNW,289,0.0,2.0,94,0.00,,,0.00,meteohub,2013-10-04 11:41:00,
2013-10-04 07:47:00,56.3,54.7,30.05,WNW,289,0.0,2.0,94,0.00,,,0.00,meteohub,2013-10-04 11:47:00,
2013-10-04 07:52:00,56.1,54.5,30.06,WNW,289,0.0,1.0,94,0.00,,,0.00,meteohub,2013-10-04 11:52:00,
2013-10-04 07:57:00,56.1,54.7,30.06,WNW,289,0.0,1.0,95,0.00,,,0.00,meteohub,2013-10-04 11:57:00,
2013-10-04 08:02:00,56.1,54.7,30.06,WNW,289,0.0,1.0,95,0.00,,,0.00,meteohub,2013-10-04 12:02:00,
2013-10-04 08:07:00,56.1,54.7,30.06,WNW,289,0.0,1.0,95,0.00,,,0.00,meteohub,2013-10-04 12:07:00,
2013-10-04 08:12:00,56.1,55.0,30.06,WNW,286,0.0,1.0,96,0.00,,,0.00,meteohub,2013-10-04 12:12:00,
2013-10-04 08:17:00,56.5,55.4,30.06,WNW,286,1.0,0.0,96,0.00,,,0.00,meteohub,2013-10-04 12:17:00,
2013-10-04 08:22:00,56.5,55.4,30.06,WNW,289,2.0,4.0,96,0.00,,,0.00,meteohub,2013-10-04 12:22:00,
2013-10-04 08:27:00,56.7,55.6,30.06,WNW,289,2.0,4.0,96,0.00,,,0.00,meteohub,2013-10-04 12:27:00,
2013-10-04 08:32:00,56.8,55.8,30.06,WNW,282,1.0,4.0,96,0.00,,,0.00,meteohub,2013-10-04 12:32:00,
2013-10-04 08:37:00,57.0,55.6,30.06,WNW,282,1.0,4.0,95,0.00,,,0.00,meteohub,2013-10-04 12:37:00,
2013-10-04 08:42:00,57.4,55.9,30.06,WNW,282,1.0,4.0,95,0.00,,,0.00,meteohub,2013-10-04 12:42:00,
2013-10-04 08:47:00,57.6,56.1,30.06,WNW,282,0.0,2.0,95,0.00,,,0.00,meteohub,2013-10-04 12:47:00,
2013-10-04 08:52:00,57.7,55.9,30.06,WNW,285,1.0,2.0,94,0.00,,,0.00,meteohub,2013-10-04 12:52:00,
2013-10-04 08:57:00,57.9,56.1,30.06,WNW,285,2.0,4.0,94,0.00,,,0.00,meteohub,2013-10-04 12:57:00,
2013-10-04 09:02:00,58.3,56.3,30.07,West,277,1.0,4.0,93,0.00,,,0.00,meteohub,2013-10-04 13:02:00,
2013-10-04 09:07:00,58.5,56.5,30.07,West,277,2.0,4.0,93,0.00,,,0.00,meteohub,2013-10-04 13:07:00,
2013-10-04 09:12:00,58.6,56.3,30.07,WNW,285,1.0,4.0,92,0.00,,,0.00,meteohub,2013-10-04 13:12:00,
2013-10-04 09:17:00,58.8,56.5,30.07,West,270,0.0,5.0,92,0.00,,,0.00,meteohub,2013-10-04 13:17:00,
2013-10-04 09:22:00,59.2,56.8,30.07,West,279,4.0,5.0,92,0.00,,,0.00,meteohub,2013-10-04 13:22:00,
2013-10-04 09:27:00,59.2,56.8,30.07,WNW,285,2.0,5.0,92,0.00,,,0.00,meteohub,2013-10-04 13:27:00,
2013-10-04 09:32:00,59.4,57.0,30.07,West,270,2.0,4.0,92,0.00,,,0.00,meteohub,2013-10-04 13:32:00,
2013-10-04 09:37:00,59.5,57.2,30.07,West,274,2.0,4.0,92,0.00,,,0.00,meteohub,2013-10-04 13:37:00,
2013-10-04 09:42:00,59.5,57.2,30.07,WNW,289,2.0,4.0,92,0.00,,,0.00,meteohub,2013-10-04 13:42:00,
2013-10-04 09:47:00,59.9,57.6,30.08,West,279,0.0,4.0,92,0.00,,,0.00,meteohub,2013-10-04 13:47:00,
2013-10-04 09:52:00,60.3,57.9,30.08,West,269,1.0,4.0,92,0.00,,,0.00,meteohub,2013-10-04 13:52:00,
2013-10-04 09:57:00,60.4,57.2,30.08,West,275,1.0,4.0,89,0.00,,,0.00,meteohub,2013-10-04 13:57:00,
2013-10-04 10:01:00,61.0,57.4,30.08,West,265,2.0,4.0,88,0.00,,,0.00,meteohub,2013-10-04 14:01:00,
2013-10-04 10:07:00,61.3,57.7,30.08,West,273,1.0,5.0,88,0.00,,,0.00,meteohub,2013-10-04 14:07:00,
2013-10-04 10:12:00,61.9,57.9,30.09,WSW,257,1.0,5.0,87,0.00,,,0.00,meteohub,2013-10-04 14:12:00,
2013-10-04 10:17:00,62.2,57.9,30.09,WSW,258,2.0,5.0,86,0.00,,,0.00,meteohub,2013-10-04 14:17:00,
2013-10-04 10:22:00,62.6,57.7,30.08,SW,216,1.0,4.0,84,0.00,,,0.00,meteohub,2013-10-04 14:22:00,
2013-10-04 10:27:00,63.7,58.1,30.08,WSW,246,0.0,4.0,82,0.00,,,0.00,meteohub,2013-10-04 14:27:00,
2013-10-04 10:32:00,63.9,57.9,30.08,WSW,256,1.0,4.0,81,0.00,,,0.00,meteohub,2013-10-04 14:32:00,
2013-10-04 10:37:00,64.0,58.1,30.08,WSW,256,1.0,3.0,81,0.00,,,0.00,meteohub,2013-10-04 14:37:00,
2013-10-04 10:42:00,64.2,59.4,30.08,West,273,1.0,4.0,84,0.00,,,0.00,meteohub,2013-10-04 14:42:00,
2013-10-04 10:47:00,64.6,57.6,30.08,WSW,243,0.0,4.0,78,0.00,,,0.00,meteohub,2013-10-04 14:47:00,
2013-10-04 10:52:00,65.1,59.9,30.09,SSW,212,0.0,5.0,83,0.00,,,0.00,meteohub,2013-10-04 14:52:00,
2013-10-04 10:57:00,65.8,60.3,30.09,NE,38,3.0,5.0,82,0.00,,,0.00,meteohub,2013-10-04 14:57:00,
2013-10-04 11:02:00,66.7,60.4,30.08,South,184,0.0,4.0,80,0.00,,,0.00,meteohub,2013-10-04 15:02:00,
2013-10-04 11:07:00,66.9,59.2,30.08,West,273,1.0,3.0,76,0.00,,,0.00,meteohub,2013-10-04 15:07:00,
2013-10-04 11:12:00,66.9,59.5,30.08,West,259,1.0,4.0,77,0.00,,,0.00,meteohub,2013-10-04 15:12:00,
2013-10-04 11:17:00,67.3,59.5,30.08,WSW,255,0.0,4.0,76,0.00,,,0.00,meteohub,2013-10-04 15:17:00,
2013-10-04 11:22:00,68.0,59.7,30.08,West,281,2.0,2.0,75,0.00,,,0.00,meteohub,2013-10-04 15:22:00,
2013-10-04 11:27:00,68.5,59.9,30.08,SSW,194,1.0,4.0,74,0.00,,,0.00,meteohub,2013-10-04 15:27:00,
2013-10-04 11:32:00,68.9,58.6,30.07,SSW,194,0.0,4.0,70,0.00,,,0.00,meteohub,2013-10-04 15:32:00,
2013-10-04 11:37:00,69.1,59.4,30.07,SSW,194,0.0,4.0,71,0.00,,,0.00,meteohub,2013-10-04 15:37:00,
2013-10-04 11:42:00,68.7,59.0,30.07,West,270,2.0,5.0,71,0.00,,,0.00,meteohub,2013-10-04 15:42:00,
2013-10-04 11:47:00,68.7,59.4,30.07,WSW,257,0.0,5.0,72,0.00,,,0.00,meteohub,2013-10-04 15:47:00,
2013-10-04 11:52:00,69.1,60.8,30.07,WSW,256,1.0,5.0,75,0.00,,,0.00,meteohub,2013-10-04 15:52:00,
2013-10-04 11:57:00,69.8,57.6,30.07,ENE,64,3.0,5.0,65,0.00,,,0.00,meteohub,2013-10-04 15:57:00,
2013-10-04 12:02:00,70.3,57.2,30.07,NE,49,3.0,3.0,63,0.00,,,0.00,meteohub,2013-10-04 16:02:00,
2013-10-04 12:07:00,70.5,58.6,30.07,West,281,2.0,5.0,66,0.00,,,0.00,meteohub,2013-10-04 16:07:00,
2013-10-04 12:12:00,71.1,57.7,30.07,NE,51,2.0,5.0,63,0.00,,,0.00,meteohub,2013-10-04 16:12:00,
2013-10-04 12:17:00,71.2,57.9,30.07,ESE,115,0.0,5.0,63,0.00,,,0.00,meteohub,2013-10-04 16:17:00,
2013-10-04 12:22:00,71.4,58.1,30.07,WSW,254,1.0,5.0,63,0.00,,,0.00,meteohub,2013-10-04 16:22:00,
2013-10-04 12:27:00,71.2,55.8,30.07,ENE,75,1.0,3.0,58,0.00,,,0.00,meteohub,2013-10-04 16:27:00,
2013-10-04 12:32:00,71.1,55.0,30.07,ESE,120,4.0,5.0,57,0.00,,,0.00,meteohub,2013-10-04 16:32:00,
2013-10-04 12:37:00,70.5,56.5,30.06,SE,146,0.0,5.0,61,0.00,,,0.00,meteohub,2013-10-04 16:37:00,
2013-10-04 12:42:00,70.9,55.4,30.07,East,79,2.0,5.0,58,0.00,,,0.00,meteohub,2013-10-04 16:42:00,
2013-10-04 12:47:00,71.2,57.0,30.06,SSE,152,1.0,5.0,61,0.00,,,0.00,meteohub,2013-10-04 16:47:00,
2013-10-04 12:52:00,71.8,57.2,30.06,SSE,147,1.0,5.0,60,0.00,,,0.00,meteohub,2013-10-04 16:52:00,
2013-10-04 12:57:00,72.7,59.7,30.06,SSE,160,0.0,5.0,64,0.00,,,0.00,meteohub,2013-10-04 16:57:00,
2013-10-04 13:02:00,73.0,57.9,30.06,NE,41,2.0,4.0,59,0.00,,,0.00,meteohub,2013-10-04 17:02:00,
2013-10-04 13:07:00,73.2,58.1,30.06,SE,144,1.0,5.0,59,0.00,,,0.00,meteohub,2013-10-04 17:07:00,
2013-10-04 13:12:00,73.0,57.9,30.06,East,98,0.0,5.0,59,0.00,,,0.00,meteohub,2013-10-04 17:12:00,
2013-10-04 13:17:00,73.0,59.2,30.05,ENE,57,2.0,5.0,62,0.00,,,0.00,meteohub,2013-10-04 17:17:00,
2013-10-04 13:22:00,73.4,57.7,30.05,SE,129,3.0,4.0,58,0.00,,,0.00,meteohub,2013-10-04 17:22:00,
2013-10-04 13:27:00,72.5,56.8,30.05,East,83,2.0,6.0,58,0.00,,,0.00,meteohub,2013-10-04 17:27:00,
2013-10-04 13:33:00,71.4,57.2,30.05,East,98,1.0,6.0,61,0.00,,,0.00,meteohub,2013-10-04 17:33:00,
2013-10-04 14:03:00,69.3,58.6,30.04,ENE,58,2.0,4.0,69,0.00,,,0.00,meteohub,2013-10-04 18:03:00,
2013-10-04 14:08:00,69.1,58.8,30.04,East,95,1.0,5.0,70,0.00,,,0.00,meteohub,2013-10-04 18:08:00,
2013-10-04 14:13:00,68.5,58.8,30.04,ESE,115,1.0,5.0,71,0.00,,,0.00,meteohub,2013-10-04 18:13:00,
2013-10-04 14:18:00,68.4,58.3,30.04,ESE,115,1.0,5.0,70,0.00,,,0.00,meteohub,2013-10-04 18:18:00,
2013-10-04 14:23:00,68.4,59.4,30.04,ENE,67,1.0,4.0,73,0.00,,,0.00,meteohub,2013-10-04 18:23:00,
2013-10-04 14:28:00,68.5,59.5,30.03,NE,50,1.0,3.0,73,0.00,,,0.00,meteohub,2013-10-04 18:28:00,
2013-10-04 14:33:00,68.5,59.9,30.03,SE,140,1.0,3.0,74,0.00,,,0.00,meteohub,2013-10-04 18:33:00,
2013-10-04 14:38:00,68.9,61.0,30.03,ESE,115,2.0,3.0,76,0.00,,,0.00,meteohub,2013-10-04 18:38:00,
2013-10-04 14:43:00,68.9,59.9,30.03,ENE,60,1.0,4.0,73,0.00,,,0.00,meteohub,2013-10-04 18:43:00,
2013-10-04 14:48:00,68.5,59.5,30.03,ESE,111,0.0,6.0,73,0.00,,,0.00,meteohub,2013-10-04 18:48:00,
2013-10-04 14:53:00,68.4,60.1,30.03,NE,46,2.0,6.0,75,0.00,,,0.00,meteohub,2013-10-04 18:53:00,
2013-10-04 14:58:00,68.4,60.4,30.03,SSE,152,2.0,6.0,76,0.00,,,0.00,meteohub,2013-10-04 18:58:00,
2013-10-04 15:03:00,68.2,60.3,30.03,East,88,2.0,4.0,76,0.00,,,0.00,meteohub,2013-10-04 19:03:00,
2013-10-04 15:09:00,67.8,59.2,30.03,East,82,0.0,4.0,74,0.00,,,0.00,meteohub,2013-10-04 19:09:00,
2013-10-04 15:14:00,67.8,59.9,30.03,East,92,0.0,4.0,76,0.00,,,0.00,meteohub,2013-10-04 19:14:00,
2013-10-04 15:19:00,68.2,59.5,30.03,SE,125,0.0,4.0,74,0.00,,,0.00,meteohub,2013-10-04 19:19:00,
2013-10-04 15:24:00,68.2,60.6,30.03,WNW,287,4.0,4.0,77,0.00,,,0.00,meteohub,2013-10-04 19:24:00,
2013-10-04 15:29:00,68.2,60.3,30.03,WSW,252,0.0,5.0,76,0.00,,,0.00,meteohub,2013-10-04 19:29:00,
2013-10-04 15:34:00,68.4,60.1,30.02,WSW,252,0.0,5.0,75,0.00,,,0.00,meteohub,2013-10-04 19:34:00,
2013-10-04 15:39:00,68.4,60.8,30.02,SSW,202,1.0,5.0,77,0.00,,,0.00,meteohub,2013-10-04 19:39:00,
2013-10-04 15:44:00,68.4,60.4,30.02,ESE,108,1.0,5.0,76,0.00,,,0.00,meteohub,2013-10-04 19:44:00,
2013-10-04 15:49:00,68.2,60.3,30.02,ESE,104,3.0,4.0,76,0.00,,,0.00,meteohub,2013-10-04 19:49:00,
2013-10-04 15:54:00,67.6,60.6,30.02,SE,144,1.0,5.0,78,0.00,,,0.00,meteohub,2013-10-04 19:54:00,
2013-10-04 15:59:00,67.5,60.8,30.02,ENE,66,3.0,5.0,79,0.00,,,0.00,meteohub,2013-10-04 19:59:00,
2013-10-04 16:04:00,67.6,60.6,30.02,SSE,151,1.0,5.0,78,0.00,,,0.00,meteohub,2013-10-04 20:04:00,
2013-10-04 16:09:00,67.6,61.2,30.02,East,91,0.0,5.0,80,0.00,,,0.00,meteohub,2013-10-04 20:09:00,
2013-10-04 16:14:00,67.6,61.0,30.02,SE,133,1.0,5.0,79,0.00,,,0.00,meteohub,2013-10-04 20:14:00,
2013-10-04 16:19:00,67.6,61.9,30.02,West,267,1.0,3.0,82,0.00,,,0.00,meteohub,2013-10-04 20:19:00,
2013-10-04 16:24:00,68.0,61.5,30.02,NE,49,4.0,4.0,80,0.00,,,0.00,meteohub,2013-10-04 20:24:00,
2013-10-04 16:29:00,67.8,61.0,30.02,ESE,115,2.0,4.0,79,0.00,,,0.00,meteohub,2013-10-04 20:29:00,
2013-10-04 16:34:00,67.8,60.6,30.02,SE,142,1.0,5.0,78,0.00,,,0.00,meteohub,2013-10-04 20:34:00,
2013-10-04 16:39:00,68.5,61.0,30.02,SE,125,2.0,7.0,77,0.00,,,0.00,meteohub,2013-10-04 20:39:00,
2013-10-04 16:44:00,69.4,61.2,30.02,ENE,68,1.0,7.0,75,0.00,,,0.00,meteohub,2013-10-04 20:44:00,
2013-10-04 16:49:00,70.2,61.5,30.02,West,259,5.0,6.0,74,0.00,,,0.00,meteohub,2013-10-04 20:49:00,
2013-10-04 16:54:00,70.7,62.8,30.02,East,89,1.0,6.0,76,0.00,,,0.00,meteohub,2013-10-04 20:54:00,
2013-10-04 16:59:00,70.9,62.6,30.02,WNW,288,1.0,5.0,75,0.00,,,0.00,meteohub,2013-10-04 20:59:00,
2013-10-04 17:04:00,70.5,61.5,30.02,ESE,111,0.0,5.0,73,0.00,,,0.00,meteohub,2013-10-04 21:04:00,
2013-10-04 17:09:00,69.6,61.7,30.02,East,81,2.0,5.0,76,0.00,,,0.00,meteohub,2013-10-04 21:09:00,
2013-10-04 17:14:00,69.3,61.7,30.02,SSE,151,0.0,5.0,77,0.00,,,0.00,meteohub,2013-10-04 21:14:00,
2013-10-04 17:19:00,69.1,62.2,30.02,ESE,115,3.0,4.0,79,0.00,,,0.00,meteohub,2013-10-04 21:19:00,
2013-10-04 17:24:00,68.4,61.2,30.02,SE,132,2.0,3.0,78,0.00,,,0.00,meteohub,2013-10-04 21:24:00,
2013-10-04 17:29:00,67.8,61.0,30.02,SE,125,1.0,5.0,79,0.00,,,0.00,meteohub,2013-10-04 21:29:00,
2013-10-04 17:34:00,66.9,60.3,30.02,ESE,120,0.0,5.0,79,0.00,,,0.00,meteohub,2013-10-04 21:34:00,
2013-10-04 17:39:00,66.7,60.1,30.02,ESE,120,0.0,5.0,79,0.00,,,0.00,meteohub,2013-10-04 21:39:00,
2013-10-04 17:44:00,66.4,60.1,30.02,ESE,120,0.0,2.0,80,0.00,,,0.00,meteohub,2013-10-04 21:44:00,
2013-10-04 17:50:00,66.2,60.3,30.02,ESE,120,0.0,2.0,81,0.00,,,0.00,meteohub,2013-10-04 21:50:00,
2013-10-04 17:55:00,65.8,59.9,30.02,ESE,120,1.0,1.0,81,0.00,,,0.00,meteohub,2013-10-04 21:55:00,
2013-10-04 18:00:00,65.7,60.1,30.02,ESE,102,2.0,2.0,82,0.00,,,0.00,meteohub,2013-10-04 22:00:00,
2013-10-04 18:05:00,65.5,60.3,30.02,ESE,115,0.0,2.0,83,0.00,,,0.00,meteohub,2013-10-04 22:05:00,
2013-10-04 18:10:00,65.1,59.9,30.02,ESE,115,1.0,2.0,83,0.00,,,0.00,meteohub,2013-10-04 22:10:00,
2013-10-04 18:15:00,64.9,59.7,30.02,ESE,102,0.0,2.0,83,0.00,,,0.00,meteohub,2013-10-04 22:15:00,
2013-10-04 18:20:00,64.9,59.7,30.03,East,97,1.0,2.0,83,0.00,,,0.00,meteohub,2013-10-04 22:20:00,
2013-10-04 18:25:00,64.9,59.7,30.03,ESE,120,1.0,2.0,83,0.00,,,0.00,meteohub,2013-10-04 22:25:00,
2013-10-04 18:30:00,65.1,59.9,30.03,East,101,1.0,2.0,83,0.00,,,0.00,meteohub,2013-10-04 22:30:00,
2013-10-04 18:35:00,65.1,59.9,30.03,SE,129,1.0,3.0,83,0.00,,,0.00,meteohub,2013-10-04 22:35:00,
2013-10-04 18:40:00,65.1,59.9,30.03,ENE,69,0.0,3.0,83,0.00,,,0.00,meteohub,2013-10-04 22:40:00,
2013-10-04 18:45:00,65.1,59.9,30.03,NE,46,2.0,3.0,83,0.00,,,0.00,meteohub,2013-10-04 22:45:00,
2013-10-04 18:50:00,64.9,59.7,30.03,NE,41,1.0,4.0,83,0.00,,,0.00,meteohub,2013-10-04 22:50:00,
2013-10-04 18:55:00,64.9,59.9,30.03,SE,125,1.0,4.0,84,0.00,,,0.00,meteohub,2013-10-04 22:55:00,
2013-10-04 19:00:00,64.8,59.9,30.03,East,83,0.0,4.0,84,0.00,,,0.00,meteohub,2013-10-04 23:00:00,
2013-10-04 19:05:00,64.6,59.9,30.03,SE,135,0.0,3.0,85,0.00,,,0.00,meteohub,2013-10-04 23:05:00,
2013-10-04 19:10:00,64.2,59.5,30.03,SE,146,0.0,2.0,85,0.00,,,0.00,meteohub,2013-10-04 23:10:00,
2013-10-04 19:15:00,64.0,59.7,30.03,ESE,102,0.0,2.0,86,0.00,,,0.00,meteohub,2013-10-04 23:15:00,
2013-10-04 19:20:00,64.0,59.7,30.03,East,79,0.0,2.0,86,0.00,,,0.00,meteohub,2013-10-04 23:20:00,
2013-10-04 19:25:00,63.9,59.5,30.03,East,95,0.0,2.0,86,0.00,,,0.00,meteohub,2013-10-04 23:25:00,
2013-10-04 19:30:00,63.5,59.2,30.03,East,94,0.0,2.0,86,0.00,,,0.00,meteohub,2013-10-04 23:30:00,
2013-10-04 19:35:00,63.3,59.0,30.03,East,92,0.0,1.0,86,0.00,,,0.00,meteohub,2013-10-04 23:35:00,
2013-10-04 19:40:00,63.1,58.8,30.04,East,79,0.0,1.0,86,0.00,,,0.00,meteohub,2013-10-04 23:40:00,
2013-10-04 19:45:00,63.1,58.8,30.04,ENE,64,0.0,1.0,86,0.00,,,0.00,meteohub,2013-10-04 23:45:00,
2013-10-04 19:50:00,63.0,59.0,30.04,East,95,0.0,1.0,87,0.00,,,0.00,meteohub,2013-10-04 23:50:00,
2013-10-04 19:55:00,63.0,59.0,30.04,East,95,0.0,0.0,87,0.00,,,0.00,meteohub,2013-10-04 23:55:00,
2013-10-04 20:00:00,62.8,58.8,30.04,East,95,0.0,0.0,87,0.00,,,0.00,meteohub,2013-10-05 00:00:00,
2013-10-04 20:05:00,62.8,58.8,30.04,East,95,0.0,0.0,87,0.00,,,0.00,meteohub,2013-10-05 00:05:00,
2013-10-04 20:10:00,62.6,58.6,30.04,East,95,0.0,0.0,87,0.00,,,0.00,meteohub,2013-10-05 00:10:00,
2013-10-04 20:15:00,62.4,58.5,30.04,East,95,0.0,0.0,87,0.00,,,0.00,meteohub,2013-10-05 00:15:00,
2013-10-04 20:20:00,62.2,58.6,30.04,East,95,0.0,0.0,88,0.00,,,0.00,meteohub,2013-10-05 00:20:00,
2013-10-04 20:25:00,62.2,58.6,30.04,East,95,0.0,0.0,88,0.00,,,0.00,meteohub,2013-10-05 00:25:00,
2013-10-04 20:30:00,62.1,58.5,30.04,NNW,344,0.0,0.0,88,0.00,,,0.00,meteohub,2013-10-05 00:30:00,
2013-10-04 20:35:00,61.9,58.3,30.04,WNW,296,0.0,0.0,88,0.00,,,0.00,meteohub,2013-10-05 00:35:00,
2013-10-04 20:40:00,61.9,58.6,30.05,WNW,292,0.0,0.0,89,0.00,,,0.00,meteohub,2013-10-05 00:40:00,
2013-10-04 20:45:00,61.9,58.6,30.05,WNW,288,0.0,0.0,89,0.00,,,0.00,meteohub,2013-10-05 00:45:00,
2013-10-04 20:50:00,61.7,58.5,30.05,WNW,288,0.0,0.0,89,0.00,,,0.00,meteohub,2013-10-05 00:50:00,
2013-10-04 20:55:00,61.5,58.3,30.05,WNW,288,0.0,0.0,89,0.00,,,0.00,meteohub,2013-10-05 00:55:00,
2013-10-04 21:00:00,61.5,58.3,30.05,WNW,288,0.0,0.0,89,0.00,,,0.00,meteohub,2013-10-05 01:00:00,
2013-10-04 21:05:00,61.3,58.1,30.06,WNW,288,0.0,0.0,89,0.00,,,0.00,meteohub,2013-10-05 01:05:00,
2013-10-04 21:10:00,61.3,58.1,30.05,WNW,288,0.0,0.0,89,0.00,,,0.00,meteohub,2013-10-05 01:10:00,
2013-10-04 21:15:00,61.2,57.9,30.05,WNW,288,0.0,0.0,89,0.00,,,0.00,meteohub,2013-10-05 01:15:00,
2013-10-04 21:20:00,61.0,58.1,30.06,WNW,288,0.0,0.0,90,0.00,,,0.00,meteohub,2013-10-05 01:20:00,
2013-10-04 21:25:00,60.8,57.9,30.06,North,352,0.0,0.0,90,0.00,,,0.00,meteohub,2013-10-05 01:25:00,
2013-10-04 21:30:00,60.8,57.9,30.06,North,352,0.0,0.0,90,0.00,,,0.00,meteohub,2013-10-05 01:30:00,
2013-10-04 21:35:00,60.8,57.9,30.06,North,352,0.0,0.0,90,0.00,,,0.00,meteohub,2013-10-05 01:35:00,
2013-10-04 21:40:00,60.8,57.9,30.06,North,352,0.0,0.0,90,0.00,,,0.00,meteohub,2013-10-05 01:40:00,
2013-10-04 21:45:00,61.0,58.1,30.06,North,6,0.0,0.0,90,0.00,,,0.00,meteohub,2013-10-05 01:45:00,
2013-10-04 21:50:00,61.0,57.7,30.06,North,6,0.0,0.0,89,0.00,,,0.00,meteohub,2013-10-05 01:50:00,
2013-10-04 21:55:00,61.0,57.7,30.06,North,6,0.0,0.0,89,0.00,,,0.00,meteohub,2013-10-05 01:55:00,
2013-10-04 22:01:00,61.0,57.7,30.06,North,6,0.0,0.0,89,0.00,,,0.00,meteohub,2013-10-05 02:01:00,
2013-10-04 22:06:00,61.0,57.7,30.06,North,6,0.0,0.0,89,0.00,,,0.00,meteohub,2013-10-05 02:06:00,
2013-10-04 22:11:00,61.0,57.7,30.06,North,6,0.0,0.0,89,0.00,,,0.00,meteohub,2013-10-05 02:11:00,
2013-10-04 22:16:00,61.0,58.1,30.06,North,6,0.0,0.0,90,0.00,,,0.00,meteohub,2013-10-05 02:16:00,
2013-10-04 22:21:00,61.0,58.1,30.06,North,6,0.0,0.0,90,0.00,,,0.00,meteohub,2013-10-05 02:21:00,
2013-10-04 22:26:00,60.8,57.9,30.06,North,6,0.0,0.0,90,0.00,,,0.00,meteohub,2013-10-05 02:26:00,
2013-10-04 22:31:00,60.8,57.9,30.06,North,6,0.0,0.0,90,0.00,,,0.00,meteohub,2013-10-05 02:31:00,
2013-10-04 22:36:00,60.8,57.9,30.06,North,6,0.0,0.0,90,0.00,,,0.00,meteohub,2013-10-05 02:36:00,
2013-10-04 22:41:00,60.8,57.9,30.06,North,6,0.0,0.0,90,0.00,,,0.00,meteohub,2013-10-05 02:41:00,
2013-10-04 22:46:00,61.2,57.9,30.06,North,6,0.0,0.0,89,0.00,,,0.00,meteohub,2013-10-05 02:46:00,
2013-10-04 22:51:00,61.3,58.1,30.06,North,6,0.0,0.0,89,0.00,,,0.00,meteohub,2013-10-05 02:51:00,
2013-10-04 22:56:00,61.3,58.1,30.06,North,6,0.0,0.0,89,0.00,,,0.00,meteohub,2013-10-05 02:56:00,
2013-10-04 23:01:00,61.5,57.9,30.06,North,6,0.0,0.0,88,0.00,,,0.00,meteohub,2013-10-05 03:01:00,
2013-10-04 23:06:00,61.5,57.9,30.06,North,6,0.0,0.0,88,0.00,,,0.00,meteohub,2013-10-05 03:06:00,
2013-10-04 23:11:00,61.5,57.9,30.06,North,6,0.0,0.0,88,0.00,,,0.00,meteohub,2013-10-05 03:11:00,
2013-10-04 23:16:00,61.3,57.7,30.06,North,6,0.0,0.0,88,0.00,,,0.00,meteohub,2013-10-05 03:16:00,
2013-10-04 23:21:00,61.2,57.6,30.05,North,6,0.0,0.0,88,0.00,,,0.00,meteohub,2013-10-05 03:21:00,
2013-10-04 23:26:00,61.0,57.4,30.05,North,6,0.0,0.0,88,0.00,,,0.00,meteohub,2013-10-05 03:26:00,
2013-10-04 23:31:00,60.8,57.2,30.05,North,6,0.0,0.0,88,0.00,,,0.00,meteohub,2013-10-05 03:31:00,
2013-10-04 23:36:00,60.4,57.2,30.05,North,6,0.0,0.0,89,0.00,,,0.00,meteohub,2013-10-05 03:36:00,
2013-10-04 23:41:00,60.3,57.0,30.05,North,6,0.0,0.0,89,0.00,,,0.00,meteohub,2013-10-05 03:41:00,
2013-10-04 23:46:00,60.1,57.2,30.05,North,6,0.0,0.0,90,0.00,,,0.00,meteohub,2013-10-05 03:46:00,
2013-10-04 23:51:00,60.1,57.4,30.05,North,6,0.0,0.0,91,0.00,,,0.00,meteohub,2013-10-05 03:51:00,
2013-10-04 23:56:00,60.1,57.2,30.05,North,6,0.0,0.0,90,0.00,,,0.00,meteohub,2013-10-05 03:56:00,